When you browse on this site, cookies collect data to enhance your experience and personalize the content and advertising you see.
Visit our Privacy Policy to learn more. By continuing to use the site, you agree to this use of cookies and data.
  • In Hungary
  • List of Countries
  • For 7 days
  • Water Temperature
  • Satellite Maps
  • Weather Map
  • News
  • Weather Widgets
  • user-avatar
    Login

    Hourly Weather Ife

    Today, 17 January, Thursday

    Time Temperature Precipitation Wind Pressure Humidity
    00:00 +24°C° 0.1 mm 0 mps 735 mmHg 96%
    01:00 +24°C° 0.1 mm 0 mps 735 mmHg 96%
    02:00 +24°C° 0.1 mm 0 mps 735 mmHg 97%
    03:00 +23°C° 0.1 mm 0 mps 734 mmHg 98%
    04:00 +23°C° 0 mm 0 mps 735 mmHg 98%
    05:00 +23°C° 0 mm 0 mps 735 mmHg 98%
    06:00 +23°C° 0 mm 0 mps 735 mmHg 98%
    07:00 +25°C° 0 mm 0 mps 736 mmHg 88%
    08:00 +27°C° 0 mm 0 mps 736 mmHg 78%
    09:00 +31°C° 0 mm 1 mps 737 mmHg 68%
    10:00 +32°C° 0 mm 0 mps 736 mmHg 55%
    11:00 +35°C° 0 mm 0 mps 736 mmHg 43%
    12:00 +38°C° 0 mm 0 mps 736 mmHg 30%
    13:00 +38°C° 0 mm 0 mps 735 mmHg 28%
    14:00 +38°C° 0 mm 0 mps 734 mmHg 25%
    15:00 +38°C° 0 mm 0 mps 734 mmHg 23%
    16:00 +36°C° 0 mm 0 mps 734 mmHg 27%
    17:00 +35°C° 0 mm 1 mps 733 mmHg 32%
    18:00 +33°C° 0 mm 1 mps 733 mmHg 36%
    19:00 +31°C° 0.1 mm 1 mps 734 mmHg 52%
    20:00 +30°C° 0.1 mm 1 mps 734 mmHg 67%
    21:00 +28°C° 0.1 mm 2 mps 735 mmHg 83%
    22:00 +28°C° 0 mm 2 mps 735 mmHg 84%
    23:00 +27°C° 0 mm 1 mps 735 mmHg 86%

    Tomorrow, 18 January, Friday

    Time Temperature Precipitation Wind Pressure Humidity
    00:00 +27°C° 0 mm 1 mps 735 mmHg 87%
    01:00 +27°C° 0 mm 1 mps 735 mmHg 88%
    02:00 +27°C° 0 mm 1 mps 734 mmHg 90%
    03:00 +26°C° 0 mm 1 mps 734 mmHg 91%
    04:00 +27°C° 0.1 mm 1 mps 735 mmHg 90%
    05:00 +27°C° 0.1 mm 1 mps 735 mmHg 88%
    06:00 +27°C° 0.1 mm 1 mps 735 mmHg 87%
    07:00 +28°C° 0.1 mm 1 mps 736 mmHg 79%
    08:00 +30°C° 0.1 mm 1 mps 737 mmHg 72%
    09:00 +31°C° 0.1 mm 1 mps 737 mmHg 64%
    10:00 +33°C° 0 mm 1 mps 737 mmHg 55%
    11:00 +35°C° 0 mm 1 mps 736 mmHg 46%
    12:00 +37°C° 0 mm 1 mps 736 mmHg 36%
    13:00 +38°C° 0 mm 2 mps 735 mmHg 37%
    14:00 +37°C° 0 mm 2 mps 734 mmHg 37%
    15:00 +36°C° 0 mm 2 mps 733 mmHg 38%
    16:00 +35°C° 0 mm 2 mps 733 mmHg 42%
    17:00 +34°C° 0 mm 2 mps 734 mmHg 47%
    18:00 +32°C° 0 mm 2 mps 734 mmHg 51%
    19:00 +31°C° 0 mm 2 mps 734 mmHg 60%
    20:00 +29°C° 0 mm 2 mps 735 mmHg 70%
    21:00 +28°C° 0 mm 2 mps 736 mmHg 79%
    22:00 +27°C° 0 mm 2 mps 735 mmHg 82%
    23:00 +27°C° 0 mm 2 mps 735 mmHg 86%

    Day after tomorrow, 19 January, Saturday

    Time Temperature Precipitation Wind Pressure Humidity
    00:00 +27°C° 0 mm 1 mps 735 mmHg 89%
    01:00 +26°C° 0 mm 1 mps 735 mmHg 90%
    02:00 +26°C° 0 mm 1 mps 735 mmHg 91%
    03:00 +26°C° 0 mm 1 mps 734 mmHg 91%
    04:00 +26°C° 0.1 mm 1 mps 735 mmHg 91%
    05:00 +26°C° 0.1 mm 1 mps 735 mmHg 91%
    06:00 +26°C° 0.1 mm 1 mps 735 mmHg 91%
    07:00 +28°C° 0 mm 1 mps 736 mmHg 82%
    08:00 +29°C° 0 mm 1 mps 737 mmHg 72%
    09:00 +31°C° 0 mm 2 mps 737 mmHg 63%
    10:00 +34°C° 0 mm 2 mps 737 mmHg 55%
    11:00 +35°C° 0 mm 1 mps 736 mmHg 47%
    12:00 +37°C° 0 mm 1 mps 736 mmHg 38%
    13:00 +37°C° 0 mm 2 mps 735 mmHg 39%
    14:00 +37°C° 0 mm 2 mps 734 mmHg 40%
    15:00 +36°C° 0 mm 2 mps 733 mmHg 41%
    16:00 +35°C° 0 mm 2 mps 734 mmHg 45%
    17:00 +34°C° 0 mm 2 mps 734 mmHg 49%
    18:00 +32°C° 0 mm 2 mps 734 mmHg 53%
    19:00 +31°C° 0 mm 2 mps 735 mmHg 62%
    20:00 +29°C° 0 mm 2 mps 735 mmHg 72%
    21:00 +28°C° 0 mm 2 mps 736 mmHg 81%
    22:00 +27°C° 0 mm 2 mps 736 mmHg 84%
    23:00 +27°C° 0 mm 1 mps 735 mmHg 87%

    20 January, Sunday

    Time Temperature Precipitation Wind Pressure Humidity
    00:00 +26°C° 0 mm 1 mps 735 mmHg 91%
    01:00 +26°C° 0.1 mm 1 mps 735 mmHg 92%
    02:00 +26°C° 0.1 mm 1 mps 735 mmHg 93%
    03:00 +23°C° 0.1 mm 0 mps 734 mmHg 95%
    04:00 +23°C° 0.1 mm 0 mps 735 mmHg 96%
    05:00 +23°C° 0.1 mm 0 mps 735 mmHg 96%
    06:00 +23°C° 0.1 mm 0 mps 736 mmHg 97%
    07:00 +26°C° 0.1 mm 1 mps 736 mmHg 88%
    08:00 +28°C° 0.1 mm 1 mps 737 mmHg 79%
    09:00 +30°C° 0.1 mm 2 mps 737 mmHg 70%
    10:00 +32°C° 0.2 mm 2 mps 737 mmHg 59%
    11:00 +36°C° 0.2 mm 2 mps 736 mmHg 48%
    12:00 +37°C° 0.2 mm 1 mps 736 mmHg 37%
    13:00 +36°C° 0 mm 1 mps 735 mmHg 40%
    14:00 +36°C° 0 mm 2 mps 734 mmHg 42%
    15:00 +35°C° 0 mm 2 mps 734 mmHg 44%
    16:00 +33°C° 0 mm 1 mps 734 mmHg 48%
    17:00 +32°C° 0 mm 1 mps 734 mmHg 51%
    18:00 +31°C° 0 mm 1 mps 735 mmHg 55%
    19:00 +30°C° 0 mm 1 mps 735 mmHg 60%
    20:00 +30°C° 0 mm 1 mps 736 mmHg 65%
    21:00 +29°C° 0 mm 2 mps 736 mmHg 69%
    22:00 +28°C° 0 mm 1 mps 736 mmHg 75%
    23:00 +27°C° 0 mm 1 mps 736 mmHg 81%

    21 January, Monday

    Time Temperature Precipitation Wind Pressure Humidity
    00:00 +26°C° 0 mm 1 mps 735 mmHg 86%
    01:00 +26°C° 0 mm 1 mps 735 mmHg 89%
    02:00 +26°C° 0 mm 1 mps 735 mmHg 91%
    03:00 +25°C° 0 mm 1 mps 734 mmHg 94%
    04:00 +25°C° 0 mm 1 mps 735 mmHg 94%
    05:00 +25°C° 0 mm 1 mps 735 mmHg 95%
    06:00 +25°C° 0 mm 1 mps 735 mmHg 95%
    07:00 +27°C° 0.9 mm 1 mps 736 mmHg 86%
    08:00 +28°C° 0.9 mm 2 mps 736 mmHg 77%
    09:00 +30°C° 0.9 mm 2 mps 737 mmHg 68%
    10:00 +32°C° 0.5 mm 2 mps 736 mmHg 59%
    11:00 +35°C° 0.5 mm 2 mps 736 mmHg 50%
    12:00 +36°C° 0.5 mm 1 mps 736 mmHg 41%
    13:00 +36°C° 0 mm 1 mps 735 mmHg 42%
    14:00 +35°C° 0 mm 1 mps 734 mmHg 43%
    15:00 +34°C° 0 mm 1 mps 733 mmHg 44%
    16:00 +33°C° 0 mm 1 mps 734 mmHg 49%
    17:00 +32°C° 0 mm 1 mps 734 mmHg 55%
    18:00 +31°C° 0 mm 1 mps 734 mmHg 60%
    19:00 +30°C° 0 mm 2 mps 734 mmHg 67%
    20:00 +29°C° 0 mm 2 mps 735 mmHg 74%
    21:00 +28°C° 0 mm 2 mps 735 mmHg 82%
    22:00 +27°C° 0 mm 2 mps 735 mmHg 85%
    23:00 +26°C° 0 mm 1 mps 735 mmHg 88%

    22 January, Tuesday

    Time Temperature Precipitation Wind Pressure Humidity
    00:00 +26°C° 0 mm 1 mps 735 mmHg 91%
    01:00 +25°C° 0 mm 1 mps 734 mmHg 93%
    02:00 +23°C° 0 mm 0 mps 734 mmHg 95%
    03:00 +23°C° 0 mm 0 mps 734 mmHg 97%
    04:00 +23°C° 0 mm 0 mps 734 mmHg 97%
    05:00 +23°C° 0 mm 0 mps 735 mmHg 96%
    06:00 +23°C° 0 mm 0 mps 735 mmHg 96%
    07:00 +27°C° 1 mm 1 mps 735 mmHg 87%
    08:00 +29°C° 1 mm 1 mps 736 mmHg 77%
    09:00 +31°C° 1 mm 2 mps 736 mmHg 68%
    10:00 +34°C° 0 mm 2 mps 736 mmHg 57%
    11:00 +35°C° 0 mm 1 mps 735 mmHg 45%
    12:00 +37°C° 0 mm 1 mps 735 mmHg 33%
    13:00 +39°C° 0 mm 1 mps 734 mmHg 31%
    14:00 +39°C° 0 mm 1 mps 733 mmHg 30%
    15:00 +39°C° 0 mm 1 mps 733 mmHg 28%
    16:00 +36°C° 0 mm 1 mps 733 mmHg 34%
    17:00 +34°C° 0 mm 1 mps 733 mmHg 40%
    18:00 +32°C° 0 mm 1 mps 733 mmHg 47%
    19:00 +31°C° 0 mm 2 mps 733 mmHg 57%
    20:00 +29°C° 0 mm 2 mps 734 mmHg 68%
    21:00 +28°C° 0 mm 2 mps 734 mmHg 79%
    22:00 +27°C° 0 mm 1 mps 734 mmHg 82%
    23:00 +27°C° 0 mm 1 mps 734 mmHg 85%
    Show more